Location: Unspecified
(0.0000°N, 0.0000°E)
Time: 23:56:18
(UTC+00:00)

Vanguard 2 - All Passes

Search period start: 18 July 2018 00:00
Search period end: 28 July 2018 00:00
Orbit: 553 x 2939 km, 32.9° (Epoch: 18 July)

Date Brightness Start Highest point End Pass type
(mag) Time Alt. Az. Time Alt. Az. Time Alt. Az.
18 Jul - 01:15:10 10° NW 01:27:45 38° NNE 01:35:50 10° E visible
18 Jul - 03:27:49 10° WNW 03:38:28 70° SW 03:44:41 10° SE visible
18 Jul - 12:19:00 10° SSE 12:21:57 13° SE 12:25:27 10° ESE daylight
18 Jul - 14:23:05 10° SW 14:30:48 68° SE 14:43:58 10° ENE daylight
18 Jul - 16:32:06 10° W 16:42:10 45° NNW 16:57:20 10° NE daylight
18 Jul - 18:46:35 10° WNW 18:57:10 22° NNW 19:09:27 10° NNE visible
18 Jul - 21:06:05 10° NNW 21:15:24 16° N 21:24:18 10° NNE visible
18 Jul - 23:20:57 10° NNW 23:32:49 23° NNE 23:42:03 10° ENE visible
19 Jul - 01:33:06 10° NW 01:46:27 51° NNE 01:54:36 10° ESE visible
19 Jul - 03:46:40 10° WNW 03:56:25 46° SW 04:02:22 10° SSE visible
19 Jul - 12:35:12 10° S 12:39:57 21° SE 12:46:30 10° E daylight
19 Jul - 14:41:01 10° SW 14:48:55 88° NW 15:02:34 10° NE daylight
19 Jul - 16:51:09 10° W 17:01:04 35° NNW 17:15:14 10° NE daylight
19 Jul - 19:07:12 10° NW 19:16:57 19° N 19:27:49 10° NNE visible
19 Jul - 21:25:34 10° NNW 21:35:33 17° N 21:44:47 10° NE visible
19 Jul - 23:38:52 10° NNW 23:52:09 29° NNE 00:01:53 10° ENE visible
20 Jul - 01:51:12 10° NW 02:04:57 70° NNE 02:13:02 10° ESE visible
20 Jul - 04:06:01 10° W 04:14:15 30° SW 04:19:45 10° SSE visible
20 Jul - 12:52:16 10° SSW 12:57:50 33° SE 13:06:23 10° E daylight
20 Jul - 14:59:12 10° WSW 15:07:14 65° NNW 15:20:51 10° NE daylight
20 Jul - 17:10:38 10° WNW 17:20:12 27° NNW 17:33:07 10° NNE daylight
20 Jul - 19:27:54 10° NW 19:36:59 16° N 19:46:44 10° NNE visible
20 Jul - 21:44:19 10° NNW 21:55:32 19° NNE 22:05:31 10° NE visible
20 Jul - 23:56:44 10° NW 00:11:13 37° NNE 00:21:16 10° E visible
21 Jul - 02:09:33 10° NW 02:23:13 87° SW 02:31:09 10° SE night (unlit)
21 Jul - 04:26:04 10° W 04:32:09 19° SW 04:36:41 10° S visible
21 Jul - 13:09:42 10° SW 13:15:42 50° SE 13:25:36 10° ENE daylight
21 Jul - 15:17:42 10° W 15:25:47 48° NNW 15:38:55 10° NE daylight
21 Jul - 17:30:35 10° WNW 17:39:35 22° NNW 17:51:03 10° NNE daylight
21 Jul - 19:48:14 10° NNW 19:57:08 16° N 20:06:25 10° NNE visible
21 Jul - 22:02:35 10° NNW 22:15:15 23° NNE 22:26:04 10° ENE visible
22 Jul - 00:14:40 10° NW 00:30:05 48° NNE 00:40:14 10° E visible
22 Jul - 02:28:14 10° WNW 02:41:18 63° SW 02:49:02 10° SE visible
22 Jul - 04:47:37 10° WSW 04:50:12 12° SW 04:52:29 10° SSW visible
22 Jul - 11:23:50 10° SSE 11:25:25 11° SE 11:27:09 10° ESE daylight
22 Jul - 13:27:27 10° SW 13:33:40 77° SE 13:44:21 10° ENE daylight
22 Jul - 15:36:34 10° W 15:44:33 35° NNW 15:56:48 10° NE daylight
22 Jul - 17:50:56 10° NW 17:59:12 18° N 18:09:11 10° NNE daylight
22 Jul - 20:07:52 10° NNW 20:17:19 16° N 20:26:55 10° NE visible
22 Jul - 22:20:37 10° NNW 22:34:43 28° NNE 22:46:14 10° ENE visible
23 Jul - 00:32:43 10° NW 00:48:44 63° NNE 00:58:51 10° ESE visible
23 Jul - 02:47:19 10° WNW 02:59:16 44° SW 03:06:39 10° SSE visible
23 Jul - 11:39:36 10° S 11:43:22 20° SE 11:48:19 10° E daylight
23 Jul - 13:45:29 10° WSW 13:51:49 73° NNW 14:02:45 10° NE daylight
23 Jul - 15:55:49 10° WNW 16:03:31 27° NNW 16:14:34 10° NNE daylight
23 Jul - 18:11:30 10° NW 18:19:04 16° N 18:27:46 10° NNE visible
23 Jul - 20:26:44 10° NNW 20:37:22 18° NNE 20:47:55 10° NE visible
23 Jul - 22:38:31 10° NW 22:53:56 36° NNE 23:05:56 10° E visible
24 Jul - 00:50:58 10° NW 01:07:10 82° NE 01:17:10 10° ESE visible
24 Jul - 03:06:54 10° W 03:17:12 31° SW 03:24:01 10° SSE visible
24 Jul - 11:56:40 10° SSW 12:01:13 33° SE 12:07:55 10° ENE daylight
24 Jul - 14:03:49 10° WSW 14:10:12 50° NNW 14:20:51 10° NE daylight
24 Jul - 16:15:34 10° WNW 16:22:43 21° NNW 16:32:17 10° NNE daylight
24 Jul - 18:31:52 10° NNW 18:39:05 14° N 18:47:09 10° NNE visible
24 Jul - 20:45:03 10° NNW 20:57:13 22° NNE 21:08:52 10° ENE visible
24 Jul - 22:56:25 10° NW 23:12:54 45° NNE 23:25:10 10° E visible
25 Jul - 01:09:28 10° WNW 01:25:24 78° SW 01:35:13 10° SE visible
25 Jul - 03:27:11 10° W 03:35:12 21° SW 03:41:02 10° S visible
25 Jul - 12:14:10 10° SW 12:19:06 56° SE 12:26:53 10° ENE daylight
25 Jul - 14:22:31 10° W 14:28:49 35° NNW 14:38:42 10° NE daylight
25 Jul - 16:35:48 10° NW 16:42:08 16° N 16:50:02 10° NNE daylight
25 Jul - 18:51:33 10° NNW 18:59:11 15° N 19:07:33 10° NE visible
25 Jul - 21:03:05 10° NNW 21:16:46 27° NNE 21:29:28 10° ENE visible
25 Jul - 23:14:23 10° NW 23:31:39 58° NNE 23:44:02 10° ESE visible
26 Jul - 01:28:18 10° WNW 01:43:31 59° SW 01:53:02 10° SE visible
26 Jul - 03:48:34 10° WSW 03:53:25 14° SW 03:57:23 10° S visible
26 Jul - 10:28:26 10° SSE 10:29:05 10° SE 10:29:45 10° SE daylight
26 Jul - 12:32:02 10° SW 12:37:06 88° NNW 12:45:23 10° NE daylight
26 Jul - 14:41:38 10° WNW 14:47:37 25° NNW 14:56:20 10° NNE daylight
26 Jul - 16:56:28 10° NNW 17:01:46 13° N 17:08:00 10° NNE daylight
26 Jul - 19:10:23 10° NNW 19:19:13 16° NNE 19:28:46 10° NE visible
26 Jul - 21:20:57 10° NNW 21:36:04 33° NNE 21:49:35 10° E visible
26 Jul - 23:32:31 10° NW 23:50:13 73° NE 00:02:33 10° ESE visible
27 Jul - 01:47:34 10° WNW 02:01:33 43° SW 02:10:38 10° SSE night (unlit)
27 Jul - 10:43:52 10° S 10:47:04 20° SE 10:50:58 10° E daylight
27 Jul - 12:50:13 10° WSW 12:55:19 54° NNW 13:03:31 10° NE daylight
27 Jul - 15:01:17 10° WNW 15:06:38 18° NNW 15:13:45 10° NNE daylight
27 Jul - 17:17:09 10° NNW 17:21:36 12° N 17:26:35 10° NNE daylight
27 Jul - 19:28:39 10° NNW 19:39:04 19° NNE 19:50:12 10° ENE visible
27 Jul - 21:38:48 10° NW 21:55:05 41° NNE 22:09:12 10° E visible
